Location: Vale
(35.4830°N, 81.3830°W)
Time: 21:27:09
(UTC-04:00)

Amateur Radio Satellites - All Passes

Search period start: 29 April 2016 20:57
Search period end: 30 April 2016 20:57
Location: Vale, 35.4830°N, 81.3830°W

Satellite Date Start Highest point End Downlink Frequencies (MHz)
Time Altitude Azimuth
JUGNU 29 Apr 20:57:52 21:01:28 16° 175° (S) 21:05:05 437.505
COMPASS 1 29 Apr 20:59:08 21:03:06 49° 75° (ENE) 21:07:07 437.405
CANX-2 29 Apr 21:17:27 21:21:26 40° 262° (W) 21:25:26 2200.000
RS-15 29 Apr 21:18:49 21:27:17 26° 101° (ESE) 21:36:01 29.354- 29.394
Oscar 11 29 Apr 21:22:34 21:26:17 29° 71° (ENE) 21:30:00 145.826/435.025
FUNcube-1 29 Apr 21:28:45 21:32:40 29° 71° (ENE) 21:36:32 145.935
CUBEBUG 2 29 Apr 21:29:07 21:33:51 70° 76° (ENE) 21:38:34 437.445
UWE-3 29 Apr 21:29:32 21:34:01 48° 74° (ENE) 21:38:28 435.000/436.395/437.385
AAUSAT CUBESAT 2 29 Apr 21:33:24 21:37:30 77° 258° (WSW) 21:41:38 437.432
AIST 2 29 Apr 21:38:43 21:42:34 40° 114° (ESE) 21:46:28 435.215
DELFI C3 29 Apr 21:42:16 21:45:16 21° 70° (ENE) 21:48:15 145.870
Cosmos 2504 29 Apr 21:47:51 21:55:17 81° 276° (W) 22:02:29 435.465 / 435.565
SRMSAT 29 Apr 21:51:37 21:54:09 13° 168° (SSE) 21:56:40 437.500
YUBILEINY 29 Apr 21:52:00 21:58:23 22° 291° (WNW) 22:04:48 435.215
CUTE 1.7 + AOD 2 29 Apr 21:52:05 21:55:06 19° 266° (W) 21:58:06 437.475
CINEMA 3 29 Apr 21:55:50 21:59:35 21° 266° (W) 22:03:24 145.822/145.860
HUMSAT D 29 Apr 22:08:15 22:11:20 20° 69° (ENE) 22:14:24 437.325/437.525
ZACube-1 29 Apr 22:08:16 22:12:51 88° 76° (ENE) 22:17:23 437.345
PRISM 29 Apr 22:26:28 22:30:06 29° 289° (WNW) 22:33:43 437.425
HO-68 29 Apr 22:27:59 22:32:28 17° 267° (W) 22:36:59 435.675
COMPASS 1 29 Apr 22:38:00 22:38:55 11° 268° (W) 22:39:51 437.405
JUGNU 29 Apr 22:46:09 22:49:45 16° 185° (S) 22:53:21 437.505
ESTCUBE 1 29 Apr 22:54:40 22:56:44 13° 65° (ENE) 22:58:47 437.505/2401.250
Oscar 11 29 Apr 22:59:12 23:02:23 20° 265° (W) 23:05:36 145.826/435.025
FUNcube-1 29 Apr 23:05:17 23:08:51 22° 265° (W) 23:12:23 145.935
UWE-3 29 Apr 23:08:10 23:10:40 14° 268° (W) 23:13:08 435.000/436.395/437.385
DELFI C3 29 Apr 23:16:51 23:20:00 23° 264° (W) 23:23:09 145.870
AIST 2 29 Apr 23:18:27 23:21:13 17° 310° (NW) 23:23:59 435.215
UNISAT 6 29 Apr 23:25:36 23:29:44 42° 99° (E) 23:33:46 437.425
AO-85 29 Apr 23:25:37 23:30:20 73° 60° (ENE) 23:34:36 145.980
RS-15 29 Apr 23:27:09 23:38:21 76° 301° (WNW) 23:50:16 29.354- 29.394
CUBEBUG 1 29 Apr 23:35:23 23:38:58 25° 70° (ENE) 23:42:34 437.445
SRMSAT 29 Apr 23:38:46 23:42:34 17° 178° (S) 23:46:21 437.500
HUMSAT D 29 Apr 23:43:03 23:46:45 29° 263° (W) 23:50:26 437.325/437.525
TIGRISAT 29 Apr 23:44:14 23:48:33 68° 101° (E) 23:52:47 435.000
GONETS M04 29 Apr 23:47:10 23:49:19 11° 76° (ENE) 23:51:28
Cosmos 2504 29 Apr 23:48:22 23:49:43 11° 295° (WNW) 23:51:04 435.465 / 435.565
VELOX 1 29 Apr 23:52:43 23:56:52 42° 73° (ENE) 00:01:04 145.980
50 SAT 29 Apr 23:53:11 23:56:43 46° 74° (ENE) 00:00:14 437.505
NANOSAT C BR1 29 Apr 23:56:04 23:58:35 15° 94° (E) 00:01:04 145.865
DX 1 30 Apr 00:01:40 00:05:51 48° 73° (ENE) 00:10:04 434.975-435.025
ANTELSAT 30 Apr 00:07:52 00:12:08 58° 286° (WNW) 00:16:20 437.575/2403.000
UKube-1 30 Apr 00:14:33 00:18:46 55° 74° (ENE) 00:23:00 .
AISAT 30 Apr 00:24:00 00:28:25 78° 258° (WSW) 00:32:54 437.250
ESTCUBE 1 30 Apr 00:28:42 00:33:03 51° 260° (W) 00:37:26 437.505/2401.250
JUGNU 30 Apr 00:37:21 00:37:59 10° 195° (SSW) 00:38:37 437.505
QB50P2 30 Apr 00:44:12 00:48:26 67° 102° (ESE) 00:52:37 145.880/145.840
POLYITAN 1 30 Apr 00:46:19 00:50:33 69° 102° (ESE) 00:54:43 437.675
DUCHIFAT 1 30 Apr 00:48:44 00:52:56 65° 101° (E) 00:57:05 145.980
POPSAT HIP 1 30 Apr 00:49:51 00:54:07 74° 102° (ESE) 00:58:19 437.405
SPROUT 30 Apr 00:50:47 00:55:04 69° 76° (ENE) 00:59:22 437.525
QB50P1 30 Apr 00:53:26 00:57:42 83° 105° (ESE) 01:01:54 145.935-145.965
JAS-2 30 Apr 00:58:14 01:02:47 16° 89° (E) 01:07:17 435.910
O/OREOS (USA 219) 30 Apr 01:00:51 01:02:43 12° 57° (ENE) 01:04:34 437.305
UNISAT 6 30 Apr 01:03:42 01:06:02 14° 294° (WNW) 01:08:21 437.425
CUBEBUG 1 30 Apr 01:11:39 01:15:10 24° 264° (W) 01:18:42 437.445
AIST 1 30 Apr 01:27:40 01:31:55 71° 95° (E) 01:36:13
SRMSAT 30 Apr 01:27:43 01:30:59 15° 188° (S) 01:34:15 437.500
NANOSAT C BR1 30 Apr 01:30:32 01:34:24 36° 288° (WNW) 01:38:15 145.865
VELOX 1 30 Apr 01:31:04 01:33:30 15° 267° (W) 01:35:58 145.980
ITUPSAT 1 30 Apr 01:32:34 01:32:56 10° 62° (ENE) 01:33:19 437.325
GONETS M04 30 Apr 01:35:42 01:44:30 75° 93° (E) 01:53:20
TISAT 1 30 Apr 01:37:35 01:41:48 69° 75° (ENE) 01:46:03 437.305
DX 1 30 Apr 01:40:29 01:42:16 12° 267° (W) 01:44:03 434.975-435.025
SWISSCUBE 30 Apr 01:41:20 01:44:03 15° 65° (ENE) 01:46:44 437.505
RS-15 30 Apr 01:44:31 01:53:15 24° 328° (NNW) 02:02:22 29.354- 29.394
BUGSAT 1 30 Apr 01:45:07 01:49:14 55° 285° (WNW) 01:53:17 437.445
CUSAT 1 30 Apr 01:46:02 01:50:08 16° 69° (ENE) 01:54:28 437.405
UKube-1 30 Apr 01:54:24 01:55:06 10° 268° (W) 01:55:48 .
Cosmos 2499 30 Apr 02:04:24 02:11:24 59° 92° (E) 02:18:18 435.465 / 435.565
PCSat 30 Apr 02:07:30 02:12:43 45° 59° (ENE) 02:17:53 145.827
Oscar 19 30 Apr 02:07:45 02:12:12 28° 96° (E) 02:16:36 437.125/150
BEESAT 30 Apr 02:13:20 02:17:26 30° 70° (ENE) 02:21:33 436.000
O/OREOS (USA 219) 30 Apr 02:38:04 02:42:31 59° 253° (WSW) 02:46:54 437.305
JAS-2 30 Apr 02:40:36 02:48:26 88° 284° (WNW) 02:56:16 435.910
ITUPSAT 1 30 Apr 03:05:20 03:10:05 77° 257° (WSW) 03:14:52 437.325
Gurwin Techsat 1B 30 Apr 03:14:16 03:19:26 50° 100° (E) 03:24:34 435.225
SWISSCUBE 30 Apr 03:16:47 03:21:23 50° 260° (W) 03:26:00 437.505
ITAMSAT 1 30 Apr 03:19:19 03:23:15 22° 95° (E) 03:27:10 435.822/435.867
CUSAT 1 30 Apr 03:25:37 03:32:49 87° 82° (E) 03:40:55 437.405
KKS-1 30 Apr 03:34:53 03:38:34 26° 69° (ENE) 03:42:16 437.445
GONETS M04 30 Apr 03:35:54 03:42:08 21° 292° (WNW) 03:48:24
DANDE 30 Apr 03:38:03 03:44:24 57° 80° (E) 03:52:12 436.750
Oscar 19 30 Apr 03:46:56 03:51:26 30° 291° (WNW) 03:55:54 437.125/150
BEESAT 30 Apr 03:51:20 03:55:10 24° 264° (W) 03:59:00 436.000
PCSat 30 Apr 03:51:46 03:55:44 21° 254° (WSW) 03:59:41 145.827
Cosmos 2499 30 Apr 03:59:57 04:04:56 20° 289° (WNW) 04:09:54 435.465 / 435.565
STARS 30 Apr 04:00:32 04:04:08 25° 69° (ENE) 04:07:46 437.465
RS-15 30 Apr 04:06:45 04:12:28 14° 5° (N) 04:18:14 29.354- 29.394
AO-7 30 Apr 04:23:47 04:31:12 35° 99° (E) 04:38:35 29.400- 29.500
JAS-2 30 Apr 04:27:45 04:32:23 17° 300° (WNW) 04:37:05 435.910
MOZHAYETS 4 30 Apr 04:50:00 04:54:34 76° 258° (WSW) 04:59:09
CUBESAT XI-V 30 Apr 04:53:05 04:54:11 11° 64° (ENE) 04:55:16 437.345
Gurwin Techsat 1B 30 Apr 04:55:25 04:58:57 18° 295° (WNW) 05:02:28 435.225
BEESAT 3 30 Apr 04:56:12 05:00:04 51° 58° (ENE) 05:03:54 437.485
BEESAT 2 30 Apr 04:57:26 05:01:00 30° 55° (NE) 05:04:32 435.950
HORYU 2 30 Apr 04:57:54 04:59:25 12° 92° (E) 05:00:55 437.375
ITAMSAT 1 30 Apr 04:58:01 05:02:47 38° 289° (WNW) 05:07:33 435.822/435.867
CUSAT 1 30 Apr 05:10:03 05:14:18 16° 275° (W) 05:18:48 437.405
KKS-1 30 Apr 05:11:21 05:15:02 25° 264° (W) 05:18:43 437.445
DANDE 30 Apr 05:21:49 05:27:02 24° 269° (W) 05:33:01 436.750
STARS 30 Apr 05:36:44 05:40:23 25° 264° (W) 05:44:04 437.465
AIST 2 30 Apr 06:04:15 06:06:07 13° 47° (NE) 06:08:00 435.215
YUBILEINY 30 Apr 06:06:53 06:14:12 29° 72° (ENE) 06:21:29 435.215
AO-7 30 Apr 06:16:11 06:24:02 48° 295° (WNW) 06:31:52 29.400- 29.500
RS-15 30 Apr 06:20:34 06:30:59 31° 40° (NE) 06:41:23 29.354- 29.394
CUBESAT XI-V 30 Apr 06:26:24 06:30:57 66° 259° (W) 06:35:32 437.345
STRAND 1 30 Apr 06:30:52 06:32:47 12° 63° (ENE) 06:34:42 437.568
HORYU 2 30 Apr 06:31:57 06:36:15 52° 286° (WNW) 06:40:31 437.375
BEESAT 2 30 Apr 06:35:51 06:38:37 18° 250° (WSW) 06:41:22 435.950
BEESAT 3 30 Apr 06:36:48 06:37:16 10° 253° (WSW) 06:37:45 437.485
LilacSat-2 30 Apr 06:38:00 06:38:08 10° 92° (E) 06:38:16 437.200
Cosmos 2491 30 Apr 06:45:42 06:52:55 29° 84° (E) 07:00:09 435.465 / 435.565
Cubesat XI-IV 30 Apr 06:47:13 06:51:07 20° 94° (E) 06:55:01 437.490
NOAA 15 30 Apr 06:55:54 07:00:53 39° 99° (E) 07:05:50 137.62
GOMX 1 30 Apr 06:59:47 07:02:22 13° 90° (E) 07:04:54 467.674
BRITE-PL 30 Apr 07:07:49 07:13:04 37° 96° (E) 07:18:12 437.365/2234.400
NOAA 18 30 Apr 07:29:06 07:34:34 72° 103° (ESE) 07:39:59 137.9125
M-CUBED/EXP-1 PRIME 30 Apr 07:39:29 07:42:07 17° 98° (E) 07:44:35 437.505
AIST 2 30 Apr 07:40:54 07:44:59 60° 244° (WSW) 07:49:02 435.215
CUTE-I 30 Apr 07:42:39 07:47:59 75° 103° (ESE) 07:53:18 437.470
Cosmos 2504 30 Apr 07:43:18 07:49:45 29° 75° (ENE) 07:56:32 435.465 / 435.565
AUBIESAT-1 30 Apr 08:00:24 08:03:38 25° 100° (E) 08:06:40 437.475
YUBILEINY 30 Apr 08:02:56 08:11:17 54° 270° (W) 08:19:39 435.215
STRAND 1 30 Apr 08:06:13 08:11:18 72° 258° (WSW) 08:16:25 437.568
LilacSat-2 30 Apr 08:09:02 08:12:39 42° 286° (WNW) 08:16:14 437.200
HO-68 30 Apr 08:10:35 08:14:23 15° 92° (E) 08:18:09 435.675
SO-50 30 Apr 08:15:07 08:19:57 65° 117° (ESE) 08:24:50 436.795
ISS 30 Apr 08:17:48 08:20:52 39° 133° (SE) 08:23:57 145.825
Cubesat XI-IV 30 Apr 08:26:21 08:31:19 42° 289° (WNW) 08:36:17 437.490
RS-15 30 Apr 08:32:40 08:45:03 85° 243° (WSW) 08:57:18 29.354- 29.394
GOMX 1 30 Apr 08:35:27 08:40:53 66° 285° (WNW) 08:46:04 467.674
NOAA 15 30 Apr 08:36:17 08:40:22 23° 294° (WNW) 08:44:27 137.62
SEEDS 30 Apr 08:38:22 08:39:28 11° 92° (E) 08:40:34 437.485
Cosmos 2491 30 Apr 08:40:41 08:49:13 53° 282° (WNW) 08:57:49 435.465 / 435.565
BRITE-PL 30 Apr 08:46:31 08:51:17 28° 291° (WNW) 08:55:59 437.365/2234.400
DOVE 4 30 Apr 08:47:00 08:52:11 82° 101° (E) 08:57:05 437.250
CANX-2 30 Apr 09:05:17 09:09:16 39° 98° (E) 09:13:13 2200.000
NOAA 18 30 Apr 09:11:57 09:14:33 14° 298° (WNW) 09:17:08 137.9125
PRISM 30 Apr 09:12:18 09:16:18 62° 259° (WSW) 09:20:21 437.425
M-CUBED/EXP-1 PRIME 30 Apr 09:13:20 09:16:43 27° 295° (WNW) 09:19:52 437.505
AAUSAT CUBESAT 2 30 Apr 09:19:29 09:22:32 20° 95° (E) 09:25:36 437.432
CUBEBUG 2 30 Apr 09:24:38 09:27:27 17° 93° (E) 09:30:13 437.445
UWE-3 30 Apr 09:25:08 09:26:10 11° 91° (E) 09:27:11 435.000/436.395/437.385
CUTE-I 30 Apr 09:25:10 09:27:21 13° 298° (WNW) 09:29:31 437.470
AUBIESAT-1 30 Apr 09:35:11 09:37:56 19° 297° (WNW) 09:40:32 437.475
Cosmos 2504 30 Apr 09:36:02 09:43:13 48° 270° (W) 09:50:54 435.465 / 435.565
CUTE 1.7 + AOD 2 30 Apr 09:38:29 09:42:43 90° 286° (WNW) 09:46:55 437.475
CINEMA 3 30 Apr 09:52:45 09:57:22 62° 285° (WNW) 10:01:45 145.822/145.860
ISS 30 Apr 09:54:59 09:57:26 19° 329° (NNW) 09:59:55 145.825
HO-68 30 Apr 09:55:34 10:02:44 82° 287° (WNW) 10:09:54 435.675
SO-50 30 Apr 09:57:49 10:00:53 16° 313° (NW) 10:03:57 436.795
ZACube-1 30 Apr 10:00:50 10:03:55 20° 94° (E) 10:06:57 437.345
SEEDS 30 Apr 10:11:22 10:15:24 49° 286° (WNW) 10:19:26 437.485
COMPASS 1 30 Apr 10:20:14 10:24:18 54° 285° (WNW) 10:28:21 437.405
UNISAT 6 30 Apr 10:21:20 10:25:19 28° 70° (ENE) 10:29:15 437.425
PHONESAT 2.4 30 Apr 10:25:19 10:27:04 14° 144° (SE) 10:28:49 2401.200-2431.200
DOVE 4 30 Apr 10:27:59 10:29:01 11° 298° (WNW) 10:30:02 437.250
TIGRISAT 30 Apr 10:39:26 10:43:49 42° 73° (ENE) 10:48:11 435.000
CANX-2 30 Apr 10:42:27 10:44:45 15° 293° (WNW) 10:47:04 2200.000
Oscar 11 30 Apr 10:47:59 10:52:19 89° 284° (WNW) 10:56:37 145.826/435.025
RS-15 30 Apr 10:48:11 10:55:43 19° 262° (W) 11:03:15 29.354- 29.394
AAUSAT CUBESAT 2 30 Apr 10:54:30 10:57:59 27° 289° (WNW) 11:01:28 437.432
FUNcube-1 30 Apr 10:55:25 10:59:38 90° 84° (E) 11:03:46 145.935
DELFI C3 30 Apr 10:56:37 11:00:30 52° 99° (E) 11:04:23 145.870
UWE-3 30 Apr 10:58:48 11:02:56 49° 286° (WNW) 11:06:58 435.000/436.395/437.385
CUBEBUG 2 30 Apr 11:00:17 11:04:10 33° 288° (WNW) 11:07:56 437.445
ANTELSAT 30 Apr 11:02:51 11:07:32 82° 77° (ENE) 11:12:11 437.575/2403.000
HUMSAT D 30 Apr 11:28:57 11:32:56 52° 100° (E) 11:36:55 437.325/437.525
QB50P2 30 Apr 11:33:52 11:37:42 33° 72° (ENE) 11:41:34 145.880/145.840
POLYITAN 1 30 Apr 11:35:56 11:39:49 34° 72° (ENE) 11:43:43 437.675
ZACube-1 30 Apr 11:36:37 11:40:11 27° 289° (WNW) 11:43:41 437.345
DUCHIFAT 1 30 Apr 11:37:43 11:41:28 31° 72° (ENE) 11:45:16 145.980
POPSAT HIP 1 30 Apr 11:39:18 11:43:14 36° 72° (ENE) 11:47:09 437.405
AIST 1 30 Apr 11:39:27 11:41:37 13° 73° (ENE) 11:43:47
QB50P1 30 Apr 11:42:44 11:46:44 40° 73° (ENE) 11:50:45 145.935-145.965
HO-68 30 Apr 11:46:05 11:49:21 14° 304° (NW) 11:52:37 435.675
GONETS M04 30 Apr 11:50:34 11:58:08 31° 73° (ENE) 12:05:36
DX 1 30 Apr 11:55:45 11:56:32 10° 92° (E) 11:57:19 434.975-435.025
UNISAT 6 30 Apr 11:58:08 12:01:56 25° 264° (W) 12:05:44 437.425
Cosmos 2499 30 Apr 11:59:21 12:04:04 17° 69° (ENE) 12:08:56 435.465 / 435.565
PHONESAT 2.4 30 Apr 12:00:27 12:03:36 86° 161° (SSE) 12:06:46 2401.200-2431.200
UKube-1 30 Apr 12:06:57 12:08:26 12° 92° (E) 12:09:55 .
TIGRISAT 30 Apr 12:17:42 12:20:38 16° 266° (W) 12:23:34 435.000
AISAT 30 Apr 12:17:48 12:21:29 25° 96° (E) 12:25:07 437.250
NANOSAT C BR1 30 Apr 12:18:55 12:23:11 76° 259° (W) 12:27:28 145.865
ESTCUBE 1 30 Apr 12:24:08 12:28:25 40° 99° (E) 12:32:40 437.505/2401.250
BUGSAT 1 30 Apr 12:31:17 12:35:26 65° 75° (ENE) 12:39:39 437.445
DELFI C3 30 Apr 12:34:35 12:34:53 10° 294° (WNW) 12:35:10 145.870
SPROUT 30 Apr 12:41:19 12:43:47 15° 93° (E) 12:46:12 437.525
JAS-2 30 Apr 12:50:44 12:55:35 28° 65° (ENE) 13:00:55 435.910
50 SAT 30 Apr 12:59:27 13:03:06 83° 282° (WNW) 13:06:45 437.505
CUBEBUG 1 30 Apr 13:02:08 13:06:36 78° 103° (ESE) 13:11:01 437.445
HUMSAT D 30 Apr 13:07:18 13:08:04 10° 295° (WNW) 13:08:51 437.325/437.525
QB50P2 30 Apr 13:10:43 13:13:33 17° 266° (W) 13:16:25 145.880/145.840
POLYITAN 1 30 Apr 13:12:52 13:15:41 17° 266° (W) 13:18:30 437.675
DUCHIFAT 1 30 Apr 13:14:16 13:17:12 18° 266° (W) 13:20:09 145.980
AIST 1 30 Apr 13:15:15 13:19:26 43° 268° (W) 13:23:35
POPSAT HIP 1 30 Apr 13:16:27 13:19:05 16° 266° (W) 13:21:45 437.405
QB50P1 30 Apr 13:20:21 13:22:39 14° 267° (W) 13:24:58 145.935-145.965
Oscar 19 30 Apr 13:21:40 13:26:07 30° 69° (ENE) 13:30:37 437.125/150
VELOX 1 30 Apr 13:21:52 13:26:18 61° 285° (WNW) 13:30:41 145.980
TISAT 1 30 Apr 13:26:21 13:28:24 13° 93° (E) 13:30:26 437.305
DX 1 30 Apr 13:28:43 13:33:02 57° 286° (WNW) 13:37:19 434.975-435.025
AO-85 30 Apr 13:35:31 13:40:48 54° 115° (ESE) 13:46:06 145.980
PHONESAT 2.4 30 Apr 13:37:46 13:40:41 33° 353° (N) 13:43:36 2401.200-2431.200
UKube-1 30 Apr 13:40:31 13:44:44 50° 286° (WNW) 13:48:55 .
GONETS M04 30 Apr 13:46:51 13:55:09 50° 271° (W) 14:03:23
Cosmos 2499 30 Apr 13:50:07 13:57:51 82° 265° (W) 14:06:13 435.465 / 435.565
AISAT 30 Apr 13:54:10 13:57:52 26° 290° (WNW) 14:01:31 437.250
ESTCUBE 1 30 Apr 14:01:59 14:04:52 17° 293° (WNW) 14:07:44 437.505/2401.250
SPROUT 30 Apr 14:15:52 14:19:51 38° 287° (WNW) 14:23:49 437.525
Gurwin Techsat 1B 30 Apr 14:32:15 14:37:28 60° 73° (ENE) 14:42:42 435.225
ITAMSAT 1 30 Apr 14:34:26 14:38:36 25° 68° (ENE) 14:42:46 435.822/435.867
JAS-2 30 Apr 14:35:07 14:40:22 38° 264° (W) 14:46:17 435.910
ISS 30 Apr 14:48:29 14:50:41 17° 29° (NNE) 14:52:53 145.825
TISAT 1 30 Apr 15:00:15 15:04:14 41° 287° (WNW) 15:08:11 437.305
Oscar 19 30 Apr 15:01:00 15:05:22 27° 264° (W) 15:09:46 437.125/150
O/OREOS (USA 219) 30 Apr 15:08:50 15:12:25 23° 101° (ESE) 15:16:01 437.305
ITUPSAT 1 30 Apr 15:09:06 15:13:26 34° 98° (E) 15:17:45 437.325
PHONESAT 2.4 30 Apr 15:14:58 15:17:58 37° 10° (N) 15:20:57 2401.200-2431.200
AO-85 30 Apr 15:17:24 15:21:37 22° 311° (NW) 15:25:48 145.980
AO-7 30 Apr 15:19:40 15:27:02 37° 63° (ENE) 15:34:24 29.400- 29.500
SWISSCUBE 30 Apr 15:19:48 15:24:27 51° 100° (E) 15:29:05 437.505
Cosmos 2499 30 Apr 15:47:21 15:49:51 12° 280° (W) 15:52:24 435.465 / 435.565
BEESAT 30 Apr 15:53:17 15:58:02 76° 285° (WNW) 16:02:46 436.000
ITAMSAT 1 30 Apr 16:13:13 16:17:52 34° 262° (W) 16:22:33 435.822/435.867
Gurwin Techsat 1B 30 Apr 16:14:58 16:17:45 14° 268° (W) 16:20:31 435.225
ISS 30 Apr 16:24:10 16:27:22 53° 226° (SW) 16:30:33 145.825
CUSAT 1 30 Apr 16:28:29 16:31:30 65° 280° (W) 16:35:22 437.405
PCSat 30 Apr 16:45:41 16:51:05 78° 114° (ESE) 16:56:31 145.827
ITUPSAT 1 30 Apr 16:47:27 16:51:01 21° 292° (WNW) 16:54:36 437.325
DANDE 30 Apr 16:47:35 16:50:11 59° 95° (E) 16:53:12 436.750
O/OREOS (USA 219) 30 Apr 16:47:38 16:51:38 29° 297° (WNW) 16:55:39 437.305
MOZHAYETS 4 30 Apr 16:48:19 16:52:22 31° 97° (E) 16:56:25
SO-50 30 Apr 16:50:08 16:54:06 26° 51° (NE) 16:57:55 436.795
PHONESAT 2.4 30 Apr 16:51:48 16:54:57 60° 206° (SSW) 16:58:04 2401.200-2431.200
SWISSCUBE 30 Apr 16:59:11 17:01:47 15° 295° (WNW) 17:04:22 437.505
Cosmos 2491 30 Apr 17:02:55 17:04:46 11° 61° (ENE) 17:06:37 435.465 / 435.565
KKS-1 30 Apr 17:04:18 17:08:48 79° 102° (ESE) 17:13:14 437.445
AO-7 30 Apr 17:11:47 17:19:34 45° 259° (W) 17:27:25 29.400- 29.500
NOAA 18 30 Apr 17:15:48 17:17:58 12° 61° (ENE) 17:20:08 137.9125
HORYU 2 30 Apr 17:26:27 17:30:56 84° 257° (WSW) 17:35:26 437.375
CUTE-I 30 Apr 17:27:16 17:27:32 10° 61° (ENE) 17:27:47 437.470
STARS 30 Apr 17:28:12 17:32:37 73° 101° (ESE) 17:36:59 437.465
Cubesat XI-IV 30 Apr 18:06:14 18:10:36 26° 68° (ENE) 18:14:57 437.490
GOMX 1 30 Apr 18:07:05 18:07:29 10° 61° (ENE) 18:07:52 467.674
NOAA 15 30 Apr 18:12:57 18:17:57 47° 72° (ENE) 18:22:59 137.62
BRITE-PL 30 Apr 18:16:05 18:19:58 26° 68° (ENE) 18:24:07 437.365/2234.400
M-CUBED/EXP-1 PRIME 30 Apr 18:22:21 18:25:42 20° 63° (ENE) 18:29:02 437.505
MOZHAYETS 4 30 Apr 18:25:53 18:29:19 21° 291° (WNW) 18:32:45
CUBESAT XI-V 30 Apr 18:26:00 18:30:23 38° 98° (E) 18:34:45 437.345
SO-50 30 Apr 18:30:28 18:34:33 31° 248° (WSW) 18:38:30 436.795
PCSat 30 Apr 18:32:06 18:35:06 15° 312° (NW) 18:38:06 145.827
AUBIESAT-1 30 Apr 18:42:47 18:46:36 26° 65° (ENE) 18:50:24 437.475
BEESAT 3 30 Apr 18:45:11 18:47:55 18° 110° (ESE) 18:50:39 437.485
LilacSat-2 30 Apr 18:47:31 18:51:19 55° 76° (ENE) 18:55:07 437.200
BEESAT 2 30 Apr 18:49:20 18:50:22 11° 108° (ESE) 18:51:26 435.950
NOAA 18 30 Apr 18:52:21 18:57:53 81° 256° (WSW) 19:03:25 137.9125
Cosmos 2491 30 Apr 18:54:32 19:03:21 69° 81° (E) 19:12:03 435.465 / 435.565
JUGNU 30 Apr 18:56:23 18:58:07 11° 166° (SSE) 18:59:50 437.505
CUTE-I 30 Apr 19:01:25 19:06:45 89° 89° (E) 19:12:06 437.470
YUBILEINY 30 Apr 19:03:56 19:11:42 37° 86° (E) 19:19:26 435.215
GOMX 1 30 Apr 19:39:47 19:44:38 86° 257° (WSW) 19:49:52 467.674
Cubesat XI-IV 30 Apr 19:45:40 19:50:28 34° 262° (W) 19:55:18 437.490
DOVE 4 30 Apr 19:48:31 19:53:24 58° 74° (ENE) 19:58:32 437.250
BRITE-PL 30 Apr 19:54:21 19:58:19 28° 266° (W) 20:02:35 437.365/2234.400
NOAA 15 30 Apr 19:54:23 19:57:55 18° 266° (W) 20:01:29 137.62
M-CUBED/EXP-1 PRIME 30 Apr 19:55:26 19:59:53 42° 257° (WSW) 20:04:22 437.505
CANX-2 30 Apr 19:55:49 19:58:53 20° 70° (ENE) 20:01:58 2200.000
CUBESAT XI-V 30 Apr 20:04:12 20:07:27 19° 292° (WNW) 20:10:42 437.345
AUBIESAT-1 30 Apr 20:16:51 20:20:54 30° 259° (W) 20:24:58 437.475
Cosmos 2504 30 Apr 20:19:41 20:25:18 24° 85° (E) 20:30:48 435.465 / 435.565
STRAND 1 30 Apr 20:19:49 20:24:46 49° 100° (E) 20:29:42 437.568
HO-68 30 Apr 20:20:27 20:27:23 55° 70° (ENE) 20:34:20 435.675
CUBEBUG 2 30 Apr 20:20:46 20:22:42 12° 65° (ENE) 20:24:38 437.445
BEESAT 3 30 Apr 20:21:53 20:25:24 30° 305° (NW) 20:28:55 437.485
BEESAT 2 30 Apr 20:23:53 20:27:45 50° 302° (WNW) 20:31:39 435.950
CUTE 1.7 + AOD 2 30 Apr 20:28:04 20:32:02 41° 74° (ENE) 20:36:00 437.475
JUGNU 30 Apr 20:42:41 20:46:21 17° 176° (S) 20:50:02 437.505
